Ypsilanti, MI

3:51 AM EDT on May 21, 2018 (GMT -0400)
Willow Run

Weather History for KYIP - October, 2012

Change the Weather History Date:

Sunday, October 7, 2012

  Actual Average Record
Temperature  
Mean Temperature 44 °F -  
Max Temperature 50 °F 65 °F 89 °F (2007)
Min Temperature 39 °F 44 °F 27 °F (1999)
Degree Days  
Heating Degree Days 20    
Moisture  
Dew Point 37 °F    
Average Humidity 70    
Maximum Humidity 80    
Minimum Humidity 54    
Precipitation  
Precipitation 0.00 in - - ()
Sea Level Pressure  
Sea Level Pressure 30.12 in    
Wind  
Wind Speed 4 mph (WNW)    
Max Wind Speed 8 mph    
Max Gust Speed -    
Visibility 10 miles    
Events Rain    
Averages and records for this station are not official NWS values.
T = Trace of Precipitation, MM = Missing Value Source: NWS Daily Summary

Daily Weather History Graph

Daily Weather History Graph

Search for Another Location

Airport or City:

Astronomy

Oct. 07, 2012 Rise Set
Actual Time 7:38 AM EDT 7:04 PM EDT
Civil Twilight 7:10 AM EDT 7:32 PM EDT
Nautical Twilight 6:37 AM EDT 8:04 PM EDT
Astronomical Twilight 6:05 AM EDT 8:37 PM EDT
Moon No Moon Rise 2:19 PM EDT (10/7)
Length of Visible Light 12h 22m
Length of Day
11h 26m
Waning Gibbous, 56% of the Moon is Illuminated
Oct 7
Waning Gibbous
Oct 8
Last Quarter
Oct 15
New
Oct 21
First Quarter
Oct 29
Full

Hourly Weather History & Observations

Time (EDT) Temp. Windchill Dew Point Humidity Pressure Visibility Wind Dir Wind Speed Gust Speed Precip Events Conditions
12:53 AM 46.0 °F 43.1 °F 37.0 °F 71% 30.11 in 10.0 mi NW 5.8 mph - N/A   Overcast
1:53 AM 46.0 °F 43.9 °F 36.0 °F 68% 30.11 in 10.0 mi WNW 4.6 mph - N/A   Overcast
2:53 AM 45.0 °F 43.5 °F 37.0 °F 74% 30.12 in 10.0 mi WNW 3.5 mph - N/A   Overcast
3:53 AM 45.0 °F - 37.0 °F 74% 30.10 in 10.0 mi Calm Calm - N/A   Overcast
4:53 AM 44.1 °F - 37.9 °F 79% 30.10 in 10.0 mi Calm Calm - N/A   Overcast
5:53 AM 43.0 °F 40.3 °F 37.0 °F 80% 30.10 in 10.0 mi NNW 4.6 mph - N/A   Overcast
6:53 AM 39.9 °F 36.7 °F 34.0 °F 79% 30.11 in 10.0 mi NW 4.6 mph - N/A   Partly Cloudy
7:53 AM 39.9 °F 36.7 °F 34.0 °F 79% 30.12 in 10.0 mi WSW 4.6 mph - N/A   Clear
8:53 AM 43.0 °F - 37.0 °F 80% 30.13 in 10.0 mi Calm Calm - N/A   Partly Cloudy
9:53 AM 46.0 °F 44.8 °F 36.0 °F 68% 30.13 in 10.0 mi NNW 3.5 mph - N/A   Overcast
10:53 AM 48.9 °F - 36.0 °F 61% 30.13 in 10.0 mi Calm Calm - N/A   Overcast
11:53 AM 48.9 °F - 35.1 °F 59% 30.12 in 10.0 mi WSW 3.5 mph - N/A   Overcast
12:53 PM 50.0 °F - 34.0 °F 54% 30.13 in 10.0 mi Calm Calm - 0.00 in Rain Light Rain
1:42 PM 48.2 °F - 37.4 °F 66% 30.12 in 10.0 mi WSW 5.8 mph - 0.00 in Rain Light Rain
1:53 PM 48.0 °F - 36.0 °F 63% 30.12 in 10.0 mi Calm Calm - 0.00 in Rain Light Rain
2:53 PM 48.9 °F - 37.0 °F 64% 30.10 in 10.0 mi North 3.5 mph - 0.00 in   Overcast
3:13 PM 48.2 °F - 37.4 °F 66% 30.10 in 10.0 mi Calm Calm - N/A   Overcast
3:53 PM 48.9 °F - 37.0 °F 64% 30.10 in 10.0 mi Calm Calm - N/A   Mostly Cloudy
4:53 PM 48.9 °F - 37.0 °F 64% 30.10 in 10.0 mi Calm Calm - 0.00 in   Overcast
5:30 PM 50.0 °F - 37.4 °F 62% 30.10 in 10.0 mi WNW 3.5 mph - N/A   Overcast
5:53 PM 48.9 °F - 37.9 °F 66% 30.11 in 10.0 mi NW 5.8 mph - N/A   Overcast
6:16 PM 48.2 °F - 37.4 °F 66% 30.10 in 10.0 mi NW 5.8 mph - N/A   Mostly Cloudy
6:53 PM 48.0 °F - 37.9 °F 68% 30.12 in 10.0 mi WSW 4.6 mph - N/A   Overcast
7:53 PM 46.0 °F 43.1 °F 39.0 °F 76% 30.13 in 10.0 mi WSW 5.8 mph - 0.00 in   Overcast
8:53 PM 46.0 °F 43.9 °F 39.0 °F 76% 30.13 in 10.0 mi West 4.6 mph - N/A   Overcast
9:53 PM 43.0 °F 39.5 °F 37.0 °F 80% 30.14 in 10.0 mi WSW 5.8 mph - N/A   Overcast
10:53 PM 44.1 °F 39.5 °F 37.0 °F 76% 30.15 in 10.0 mi West 8.1 mph - N/A   Mostly Cloudy
11:53 PM 44.1 °F 40.1 °F 36.0 °F 73% 30.16 in 10.0 mi West 6.9 mph - N/A   Overcast